Starlink 11650

operational
NORAD ID: 63312 Int'l Des: 2025-057 Owner: SPXS Country: US Constellation: starlink
LEOCIRCULAR

About Starlink 11650

Description loading...

Live Position

Loading 3D Globe...

Upcoming Passes

Altitude History

Altitude vs Time

uPlot chart will show altitude changes over time

Two-Line Element Set

1 63312U 25057F 25259.07986519 .00375384 00000-0 27667-2 0 9992
2 63312 42.9992 237.2339 0002556 227.2076 132.8577 15.71115485 29748
Epoch: Sep 16, 2025 • Age: 17 hours

Current Status

Altitude 352.6 km
Velocity 7.70 km/s
Sub-Earth Point 9.85°N, 115.2°E
Launch Date Mar 18, 2025
Age 0.4 years
Type internet

Technical Details

Classification Payload
Mass 960.00 kg
Dry Mass 910.00 kg
Total Mass 960.00 kg
Length 0.30 m
Diameter 4.10 m
Span 29.00 m
Shape Box + pan
Manufacturer SPXS
Bus Type Starlink V2MD
Phase Status In Orbit
Owner/State SPXS/US

Large Constellations

Loading constellations...